Temperature
18 18 18 18 18 18 18 18 18 18 18 18 18 18 18 18 18 18 18 18 18 18 18 18 18 18 18 18 18 17 17 17 17 17 17 17 17 17 17 17 17 17 17
18 18 18 18 18 18 18 18 18 18 18 18 18 18 18 18 18 18 18 18 18 18 18 18 18 18 18 18 18 17 17 17 17 17 17 17 17 17 17 17 17 16 16
18 18 17 17 18 17 17 17 17 18 18 18 18 18 18 18 18 18 18 18 18 18 18 18 18 18 18 18 17 17 17 17 17 17 17 17 17 17 17 17 17 16 16
17 17 17 17 18 17 17 17 17 17 17 18 18 18 18 18 18 18 18 18 18 18 18 18 18 18 18 17 17 17 17 17 17 17 17 17 17 17 17 17 16 16 16
17 17 17 17 17 17 17 17 17 17 17 18 18 18 18 18 18 18 18 18 18 18 18 18 18 18 17 17 17 17 17 17 17 17 17 17 17 16 16 16 16 16 16
17 17 17 17 17 17 17 17 17 17 17 17 17 18 18 18 18 18 18 18 18 18 17 17 17 17 17 17 17 17 17 17 17 17 17 17 16 16 16 16 16 16 16
17 17 17 17 17 17 17 17 17 17 17 17 17 18 18 18 18 18 18 18 18 17 17 17 17 17 17 17 17 17 17 17 17 17 17 16 16 16 16 16 16 16 16
17 17 17 17 17 17 17 17 17 17 17 17 17 17 17 18 18 18 18 18 18 18 17 17 17 17 17 17 17 17 17 17 17 16 16 16 16 16 16 16 16 16 16
17 17 17 17 17 17 17 17 17 17 17 17 17 17 17 17 17 18 18 18 17 17 17 17 17 17 17 17 17 17 17 17 16 16 16 16 16 16 16 16 16 16 16
17 17 17 17 17 17 17 17 17 16 17 17 17 17 17 17 17 17 17 17 17 17 17 17 17 17 17 17 17 17 16 16 16 16 16 16 16 16 16 15 15 15 15
17 17 17 17 17 17 17 16 17 16 17 17 17 17 17 17 17 17 17 17 17 17 17 17 17 17 17 16 16 16 16 16 16 16 16 16 16 15 15 15 15 15 15
17 17 17 17 17 17 17 17 17 17 17 17 17 17 17 17 17 17 17 17 17 17 17 17 17 16 16 16 16 16 16 16 16 16 16 16 15 15 15 15 15 15 15
17 17 17 17 17 16 16 16 16 16 16 17 17 17 16 17 17 17 17 17 17 17 17 17 16 16 16 16 16 16 16 16 16 15 15 15 15 15 15 15 15 15 15
17 17 17 17 16 16 16 16 16 16 16 16 16 16 16 16 16 16 16 16 16 16 16 16 16 16 16 16 16 16 16 15 15 15 15 15 15 15 15 15 15 14 14
17 17 16 16 16 16 16 16 16 16 16 16 16 16 16 16 16 16 16 16 16 15 16 16 16 16 16 15 15 15 15 15 15 15 15 15 15 15 14 14 14 14 14
16 16 16 16 16 16 16 16 16 16 16 16 16 16 16 16 16 16 16 16 16 16 15 15 15 15 15 15 15 15 15 15 15 14 14 14 14 14 14 14 14 14 14
16 16 16 16 16 16 16 16 15 15 15 15 15 15 15 15 15 15 15 15 15 15 15 15 15 15 15 15 14 14 14 14 14 14 14 14 14 14 14 14 14 14 14
16 16 16 16 16 16 16 15 15 15 15 15 15 15 15 15 15 15 15 15 15 15 15 15 14 14 14 14 14 14 14 14 14 14 14 14 14 14 14 14 13 13 13
16 16 16 15 15 15 15 15 15 15 15 15 15 15 15 15 15 14 14 14 14 14 14 14 14 14 14 14 14 13 13 13 13 14 14 13 13 13 13 13 13 13 13
16 16 15 15 15 15 15 15 15 15 14 14 14 14 14 14 14 14 14 14 14 14 14 14 13 13 13 13 13 13 13 13 13 13 13 13 13 13 13 13 13 13 13
15 15 15 15 15 15 15 15 15 14 14 14 14 14 14 14 14 14 14 14 14 14 13 13 13 13 13 12 12 12 12 12 12 12 13 13 13 13 13 13 13 13 12
15 15 15 15 15 15 15 15 14 14 14 14 13 13 13 14 14 14 13 13 13 13 13 13 12 12 12 12 12 12 12 12 12 12 12 12 12 12 12 12 12 12 12
15 15 15 15 15 15 14 14 14 14 14 13 13 13 13 13 13 13 13 13 13 13 13 12 12 12 12 12 12 12 12 12 12 12 12 12 12 12 12 12 12 12 12
15 15 14 14 14 14 14 14 14 14 13 13 13 13 13 13 13 13 13 13 13 13 12 12 12 12 12 12 12 12 12 12 11 11 12 11 11 12 12 12 12 12 12
15 15 14 14 14 14 14 14 14 13 13 13 13 13 12 12 12 12 12 12 12 12 12 12 12 12 12 12 12 12 12 11 11 11 11 11 11 11 11 11 11 11 11
14 14 14 14 14 14 14 14 14 13 13 13 12 12 12 12 12 12 12 12 12 12 12 12 12 12 12 12 12 12 12 11 11 11 11 11 11 11 10 11 11 11 11
Wind_Speed
1 0 0 1 2 2 2 2 2 2 3 3 4 5 4 4 4 5 6 12 13 12 11 11 10 10 10 10 10 11 12 12 12 12 12 12 12 12 13 14 14 14 14
1 1 0 0 1 1 1 1 2 2 2 3 4 3 3 3 3 4 6 9 13 13 12 11 11 10 10 9 9 9 10 11 11 11 11 12 12 12 12 12 13 13 14
2 1 1 0 1 2 1 1 1 1 2 3 3 3 3 3 3 3 5 7 9 12 13 12 12 11 10 10 9 9 9 10 10 10 11 11 11 12 12 12 13 13 13
2 1 1 1 1 2 1 0 1 1 2 2 2 2 2 2 4 4 5 6 7 8 11 13 12 11 11 10 9 9 8 8 9 9 10 11 11 11 12 12 13 14 14
2 1 1 1 1 1 1 1 0 1 2 2 2 3 3 3 3 5 5 5 6 7 7 10 12 12 11 10 9 9 8 8 8 8 8 8 9 10 11 12 12 13 13
2 2 1 1 1 1 1 1 1 1 2 2 3 2 2 2 2 3 4 4 5 6 7 8 9 8 10 10 9 9 8 7 7 7 7 7 7 8 9 11 12 13 13
2 1 2 1 1 1 1 2 1 2 2 1 1 1 2 3 2 2 1 1 3 4 6 7 8 7 7 9 9 8 8 8 7 7 7 7 7 7 7 7 10 12 13
1 1 1 2 1 1 1 1 1 2 2 1 1 1 1 1 1 2 2 3 2 2 3 5 7 8 7 7 8 9 9 9 9 8 7 7 7 7 6 7 7 9 11
1 1 1 1 1 1 1 1 1 2 2 2 1 1 1 1 0 1 1 1 2 2 2 3 5 7 7 7 8 9 10 9 9 9 8 8 7 7 6 6 7 7 8
1 1 2 2 2 1 1 2 0 2 2 2 2 1 1 0 1 1 1 1 2 3 2 2 2 5 6 7 7 8 10 10 10 10 9 8 7 7 7 7 7 7 7
1 2 2 2 2 1 2 2 1 1 1 2 2 2 2 1 2 1 1 1 1 2 2 2 2 3 5 5 6 7 10 10 10 10 9 8 8 8 7 8 8 7 7
1 1 1 1 2 1 2 2 2 1 1 2 2 2 1 1 1 1 1 2 2 2 1 1 2 2 4 5 5 7 9 10 10 10 9 9 8 8 8 8 8 8 7
1 1 1 1 1 1 1 2 2 2 2 2 2 2 2 2 1 1 1 1 1 1 1 1 1 2 4 5 6 8 8 9 9 9 9 9 9 9 8 8 8 8 7
2 2 1 1 1 2 2 1 2 1 1 2 2 2 2 2 2 1 0 1 1 1 0 1 1 2 3 5 6 6 6 7 8 8 9 9 8 8 8 8 7 7 7
1 2 1 1 1 1 2 1 2 2 1 1 2 2 2 2 2 1 0 0 1 1 1 0 1 1 3 5 6 5 6 7 8 9 10 10 9 8 7 8 8 8 7
2 2 2 1 1 1 2 2 2 2 1 2 1 1 2 2 2 2 1 1 1 1 1 1 1 1 2 2 4 4 4 7 8 9 10 10 9 8 8 8 8 8 8
1 1 1 1 1 2 2 1 2 2 2 2 3 2 2 2 2 2 2 1 1 0 0 1 0 1 1 2 2 3 3 4 5 8 10 10 10 9 9 9 9 9 8
1 1 1 2 2 2 2 2 2 3 2 3 3 2 3 2 2 2 2 2 1 0 1 0 0 0 1 1 2 1 1 1 2 5 9 9 10 10 10 9 9 9 9
0 1 1 1 2 2 2 2 2 2 2 3 2 2 2 2 2 2 2 2 2 1 1 0 1 1 1 1 1 0 0 0 1 2 5 7 8 9 10 10 10 10 10
1 1 1 1 1 2 3 3 2 2 3 2 2 3 2 2 2 2 2 2 2 2 1 0 0 0 1 1 1 0 1 1 1 1 2 3 6 8 10 10 9 10 10
1 1 1 1 1 2 3 4 3 2 2 2 2 2 2 2 2 1 1 1 2 1 1 0 0 0 0 0 0 1 1 1 1 1 0 1 3 3 5 8 9 9 10
1 1 1 2 2 3 4 6 4 3 3 3 2 2 0 1 3 3 2 1 0 0 0 0 1 1 1 1 1 1 1 1 2 1 1 2 1 2 3 5 9 10 11
1 1 1 2 2 3 4 4 4 3 2 2 2 3 3 2 2 1 0 1 1 2 4 3 2 2 2 2 1 2 2 2 3 2 1 2 2 2 3 5 9 11 11
1 1 1 1 1 1 1 3 4 3 2 2 2 1 1 2 3 3 2 2 2 2 3 3 2 3 2 1 2 2 3 2 2 2 2 2 2 2 2 3 8 11 12
2 2 2 1 1 1 0 1 3 3 1 1 1 1 1 2 2 3 1 2 2 3 3 2 3 4 4 4 3 2 2 3 3 3 2 2 2 2 2 3 6 11 12
2 2 1 1 1 1 2 1 1 3 2 2 1 1 2 1 2 2 1 2 3 3 3 3 3 4 4 5 6 5 4 4 3 2 2 2 2 2 2 2 2 5 7
Wind_Direction
35 44 225 201 244 217 193 208 226 227 221 221 232 228 238 235 201 182 176 174 178 180 185 193 201 204 206 209 210 212 214 212 209 206 207 210 210 211 211 208 205 202 201
43 6 301 3 296 280 193 229 242 238 229 226 232 230 234 243 212 183 172 177 185 187 191 196 202 204 205 209 209 209 211 210 209 209 210 210 210 211 210 209 207 204 204
47 1 317 127 358 318 265 226 250 241 240 227 222 213 216 224 216 203 189 183 187 195 198 200 202 201 201 204 203 205 207 205 203 203 205 206 207 208 208 207 205 205 205
56 2 332 50 355 320 350 243 228 253 253 247 240 207 203 209 214 199 201 189 185 191 196 201 200 197 200 203 202 201 195 193 194 197 204 207 208 208 207 208 208 207 205
46 21 2 45 335 323 357 303 78 265 267 266 250 213 204 210 212 204 199 195 180 175 172 184 191 194 197 198 196 195 194 192 193 196 197 201 207 212 211 211 210 207 205
51 16 330 66 356 340 348 340 323 280 256 256 257 248 234 217 206 202 204 194 183 181 170 164 170 184 189 192 192 190 189 187 191 192 194 199 202 205 209 210 210 209 206
48 37 351 11 344 7 357 319 312 293 270 251 267 278 266 228 196 202 187 177 176 172 168 159 160 162 167 178 178 180 182 184 186 187 189 195 198 199 204 205 208 208 207
13 36 5 333 354 8 332 308 317 293 278 259 233 239 246 241 234 205 180 182 183 161 164 165 162 164 167 166 175 185 188 190 192 190 187 192 198 198 199 202 200 202 205
60 347 14 350 330 309 261 275 276 287 282 292 257 236 246 242 247 233 205 175 166 170 167 160 158 159 166 164 167 185 191 193 196 195 192 194 198 199 202 204 201 200 201
32 14 26 1 333 338 339 278 282 285 276 278 287 271 261 208 219 201 218 185 187 192 188 184 147 153 160 162 164 171 187 191 192 195 196 197 195 196 201 206 206 205 205
62 33 31 358 334 344 336 336 341 308 296 296 296 296 288 274 257 212 209 247 253 220 194 167 158 149 154 158 156 167 181 186 188 192 195 196 196 198 201 201 204 206 205
95 43 32 14 345 334 341 341 327 316 327 327 315 313 307 295 288 278 200 220 239 251 216 168 168 153 149 152 161 169 174 181 187 191 196 198 199 200 203 203 204 211 210
76 62 24 27 346 346 359 343 314 319 340 320 297 306 320 303 299 312 248 241 244 256 210 156 134 144 152 140 149 159 167 178 185 190 196 200 201 201 203 203 202 208 208
34 62 42 25 10 1 342 346 314 307 314 311 314 321 303 310 345 355 4 328 294 299 348 156 137 126 137 136 143 156 164 171 181 186 187 191 195 199 202 201 198 203 209
25 38 34 44 18 354 330 339 324 312 323 302 316 318 304 299 317 335 320 198 220 268 277 274 93 127 135 131 149 166 165 177 186 190 190 192 196 200 201 197 197 199 203
26 13 7 19 8 358 352 350 323 312 313 297 277 295 314 320 331 329 312 273 251 248 285 340 353 114 101 125 154 155 166 180 189 188 193 194 198 199 197 194 196 197 200
17 343 347 355 359 357 359 353 327 349 0 334 330 352 346 331 338 332 322 310 284 221 180 313 6 47 63 117 132 151 163 168 180 191 192 194 200 201 198 198 198 199 203
27 359 359 352 356 10 7 359 343 356 354 343 343 357 351 340 346 338 336 332 339 3 140 204 195 145 70 94 132 168 155 179 179 192 191 197 203 202 201 201 198 200 204
55 45 31 9 9 12 6 355 356 354 355 358 359 6 356 344 336 343 350 339 347 352 68 203 239 171 141 111 95 76 273 133 244 186 185 195 203 205 203 200 200 203 205
61 57 30 16 23 22 10 2 7 15 13 11 14 23 9 356 336 328 328 337 1 17 28 345 179 56 74 102 101 249 276 248 284 261 177 194 201 205 206 203 202 205 207
28 50 47 25 33 29 17 12 352 17 355 350 6 23 20 36 48 19 344 20 3 7 18 356 54 21 5 54 318 283 276 278 273 260 189 204 184 195 200 207 208 209 207
51 49 36 39 25 19 30 28 18 357 342 341 342 337 327 48 64 70 52 44 327 287 317 333 291 263 265 268 281 278 281 286 291 278 251 265 204 209 203 204 205 207 208
161 177 91 78 55 36 24 19 5 330 316 327 341 341 338 17 52 48 21 289 275 256 231 225 230 245 254 260 268 274 274 278 278 259 255 261 241 234 225 219 202 204 208
190 186 138 131 121 57 42 13 341 306 312 325 324 335 355 29 4 2 334 317 291 283 262 234 225 238 255 257 243 255 257 260 258 255 229 252 249 249 249 206 208 206 207
194 206 203 184 145 130 131 5 339 300 293 313 337 17 50 63 7 346 316 305 306 300 287 261 241 240 246 258 249 250 251 254 263 258 236 251 260 264 253 235 213 207 210
227 222 185 174 183 185 162 196 293 293 299 305 278 129 80 64 351 345 289 285 294 303 310 309 287 266 241 234 233 227 232 241 252 257 236 242 249 257 276 259 208 194 207
Height
1520 1520 1521 1522 1522 1523 1523 1523 1524 1525 1525 1526 1527 1528 1529 1529 1530 1531 1532 1533 1534 1535 1536 1537 1538 1538 1540 1541 1542 1543 1544 1545 1547 1548 1549 1550 1552 1553 1554 1556 1557 1559 1561
1519 1519 1520 1520 1521 1522 1522 1522 1523 1523 1524 1525 1525 1526 1527 1528 1528 1529 1530 1531 1532 1533 1534 1535 1536 1536 1537 1538 1539 1540 1542 1543 1544 1545 1546 1548 1549 1550 1552 1554 1555 1557 1559
1518 1519 1519 1519 1520 1520 1521 1521 1522 1522 1523 1523 1524 1525 1525 1526 1526 1527 1528 1529 1530 1531 1532 1533 1534 1534 1535 1536 1537 1538 1539 1541 1542 1543 1544 1545 1547 1548 1550 1551 1553 1554 1556
1518 1518 1519 1519 1519 1519 1519 1520 1520 1521 1522 1522 1523 1523 1524 1524 1525 1525 1526 1527 1528 1529 1530 1531 1531 1532 1533 1534 1535 1536 1537 1538 1540 1541 1542 1543 1545 1546 1548 1549 1551 1552 1554
1518 1518 1518 1518 1518 1518 1518 1519 1519 1520 1520 1521 1521 1522 1522 1523 1523 1524 1525 1526 1526 1527 1528 1529 1529 1530 1531 1532 1533 1534 1535 1536 1537 1538 1539 1540 1542 1543 1545 1546 1548 1550 1551
1517 1517 1517 1517 1517 1518 1518 1518 1518 1519 1519 1520 1520 1520 1521 1521 1522 1522 1523 1524 1525 1525 1526 1526 1527 1528 1529 1530 1531 1532 1533 1534 1535 1536 1537 1538 1539 1541 1542 1544 1545 1547 1549
1517 1517 1517 1517 1517 1517 1517 1517 1518 1518 1518 1519 1519 1519 1519 1520 1520 1521 1522 1523 1523 1524 1524 1525 1526 1526 1527 1528 1529 1530 1531 1532 1533 1534 1535 1536 1537 1538 1539 1541 1542 1544 1546
1517 1517 1516 1516 1516 1516 1516 1516 1517 1517 1517 1518 1518 1518 1518 1519 1518 1519 1520 1520 1521 1522 1523 1523 1524 1525 1526 1526 1527 1528 1528 1529 1530 1531 1532 1533 1535 1536 1537 1538 1539 1541 1542
1517 1517 1516 1516 1516 1516 1515 1515 1516 1516 1516 1516 1517 1518 1517 1517 1518 1518 1518 1518 1519 1520 1521 1521 1522 1523 1524 1524 1525 1526 1526 1527 1528 1529 1530 1531 1532 1533 1535 1536 1537 1538 1540
1517 1517 1516 1516 1515 1515 1515 1515 1515 1515 1515 1515 1516 1516 1517 1516 1516 1517 1517 1517 1518 1518 1519 1520 1520 1521 1522 1522 1522 1523 1524 1525 1526 1526 1527 1528 1530 1531 1532 1533 1534 1536 1537
1517 1516 1516 1515 1515 1515 1514 1514 1514 1514 1514 1514 1515 1515 1515 1515 1515 1516 1516 1516 1517 1517 1517 1518 1519 1519 1519 1520 1520 1521 1522 1523 1523 1524 1525 1526 1527 1528 1530 1531 1532 1533 1534
1517 1516 1516 1515 1514 1514 1514 1513 1513 1513 1513 1513 1513 1514 1514 1514 1514 1514 1514 1515 1515 1516 1516 1516 1517 1517 1517 1517 1518 1519 1519 1520 1521 1522 1523 1524 1525 1526 1527 1528 1529 1531 1532
1517 1516 1515 1514 1514 1513 1513 1513 1513 1512 1512 1512 1512 1512 1512 1512 1513 1513 1513 1513 1513 1514 1514 1515 1515 1515 1515 1515 1516 1517 1517 1518 1519 1520 1521 1522 1523 1524 1525 1526 1527 1528 1529
1517 1516 1515 1514 1513 1513 1513 1512 1512 1511 1511 1511 1511 1511 1511 1511 1511 1511 1512 1511 1511 1512 1512 1513 1513 1513 1513 1514 1514 1514 1515 1516 1517 1518 1518 1519 1520 1521 1523 1524 1524 1525 1527
1516 1515 1514 1513 1512 1512 1512 1511 1511 1510 1510 1510 1510 1509 1509 1510 1510 1510 1510 1510 1511 1510 1511 1512 1512 1512 1512 1511 1512 1512 1513 1514 1514 1515 1516 1517 1518 1519 1520 1521 1522 1523 1524
1514 1513 1513 1512 1512 1511 1511 1510 1510 1509 1509 1509 1508 1508 1508 1508 1508 1508 1509 1509 1509 1510 1509 1509 1510 1510 1510 1510 1510 1510 1511 1511 1512 1513 1514 1515 1516 1517 1517 1518 1519 1520 1521
1513 1512 1512 1511 1511 1510 1510 1509 1508 1508 1508 1507 1507 1507 1506 1506 1506 1506 1506 1507 1507 1508 1507 1508 1508 1508 1508 1508 1508 1508 1509 1509 1510 1511 1512 1512 1513 1514 1515 1515 1516 1517 1518
1511 1511 1511 1510 1510 1509 1509 1508 1507 1507 1507 1506 1506 1505 1505 1505 1504 1504 1504 1505 1505 1505 1506 1506 1506 1507 1507 1506 1506 1507 1507 1507 1507 1508 1509 1510 1510 1511 1512 1513 1513 1514 1515
1511 1510 1510 1509 1509 1508 1507 1507 1507 1506 1506 1505 1504 1504 1503 1503 1502 1502 1503 1503 1503 1504 1504 1504 1504 1505 1505 1505 1505 1505 1505 1505 1506 1506 1507 1507 1508 1508 1509 1510 1510 1511 1512
1510 1509 1509 1508 1508 1507 1507 1506 1505 1505 1504 1504 1503 1503 1502 1502 1502 1501 1501 1501 1502 1502 1502 1502 1503 1503 1503 1503 1503 1503 1503 1503 1504 1504 1505 1505 1505 1506 1506 1507 1507 1508 1509
1509 1508 1508 1507 1507 1506 1506 1505 1505 1504 1503 1503 1502 1502 1501 1501 1501 1500 1500 1500 1500 1500 1500 1500 1501 1501 1501 1501 1501 1501 1501 1501 1502 1502 1502 1502 1503 1503 1503 1504 1504 1505 1505
1507 1507 1506 1506 1506 1506 1505 1504 1503 1503 1502 1502 1501 1501 1500 1500 1499 1499 1499 1499 1498 1498 1498 1498 1498 1498 1499 1499 1499 1499 1499 1499 1499 1500 1500 1500 1500 1500 1500 1501 1501 1501 1502
1506 1506 1505 1505 1505 1504 1504 1503 1502 1501 1501 1500 1500 1499 1499 1499 1498 1498 1497 1497 1497 1497 1497 1497 1496 1496 1497 1497 1497 1497 1497 1497 1496 1497 1497 1496 1497 1497 1497 1498 1498 1498 1498
1504 1504 1504 1503 1503 1503 1502 1502 1501 1500 1499 1499 1498 1498 1497 1496 1496 1496 1496 1495 1495 1495 1495 1495 1494 1494 1495 1495 1495 1495 1494 1494 1494 1495 1495 1494 1494 1494 1494 1494 1494 1495 1495
1503 1503 1503 1502 1502 1501 1501 1500 1499 1499 1498 1497 1497 1496 1496 1495 1495 1494 1494 1493 1493 1493 1493 1493 1493 1492 1492 1492 1492 1492 1491 1491 1491 1491 1492 1492 1491 1491 1491 1491 1491 1491 1491
1502 1502 1501 1501 1500 1500 1499 1498 1498 1497 1497 1496 1495 1495 1494 1493 1493 1493 1492 1491 1491 1490 1490 1490 1490 1490 1490 1490 1490 1489 1489 1489 1488 1488 1489 1489 1488 1488 1487 1487 1487 1487 1487